Home   Weather   Clarksville   Past weeks

Flag for USA Past Weather in Clarksville, Tennessee, USA — Yesterday and Last 2 Weeks

Now
57 °F

Clear.


Feels Like: 57 °F
Forecast: 55 / 66 °F
Wind: 5 mph from South

Location: Outlaw Field

Current Time: Jan 20, 2017 at 8:23:08 pm

Latest Report: Jan 20, 2017 at 7:52 pm


Visibility: 10 mi

Pressure: 29.72 "Hg

Humidity: 78%

Dew Point: 50 °F

Location of ClarksvilleLocation

Past Weather in Clarksville — Graph

°F

Clarksville Temperature Yesterday

Maximum temperature yesterday: 56 °F (at 4:31 pm)
Minimum temperature yesterday: 45 °F (at 5:13 am)
Average temperature yesterday: 51 °F

High & Low Weather Summary for the Past Weeks

 TemperatureHumidityPressure
High71 °F (Jan 12, 12:52 pm)97% (Jan 11, 4:52 am)30.81 "Hg (Jan 11, 4:52 am)
Low7 °F (Jan 8, 5:52 am)29% (Jan 9, 12:52 pm)29.66 "Hg (Jan 20, 12:52 am)
Average44 °F78%30.22 "Hg
* Reported Jan 5 6:52 pm — Jan 20 6:52 pm, Clarksville, Weather by CustomWeather, © 2017

Note: Actual official high and low records may vary slightly from our data, if they occured in-between our weather recording intervals... More about our weather records

Advertising

Clarksville Weather History for the Previous 24 Hours

Scroll right to see more
 ConditionsComfort  
Time TempWeatherWind HumidityBarometerVisibility
6:52 pm
Fri, Jan 20
57 °FClear.3 mph78%29.72 "Hg10 mi
5:52 pm61 °FClear.5 mph70%29.71 "Hg10 mi
4:52 pm63 °FClear.10 mph65%29.68 "Hg10 mi
3:52 pm65 °FSunny.12 mph63%29.67 "Hg10 mi
2:52 pm64 °FBroken clouds.10 mph68%29.69 "Hg10 mi
1:52 pm63 °FBroken clouds.13 mph73%29.68 "Hg10 mi
1:05 pm61 °FCloudy.9 mph78%29.71 "Hg10 mi
12:52 pm60 °FCloudy.8 mph78%29.71 "Hg10 mi
11:52 am59 °FMostly cloudy.10 mph81%29.75 "Hg10 mi
10:52 am60 °FOvercast.10 mph78%29.78 "Hg10 mi
9:52 am60 °FPartly sunny.10 mph80%29.78 "Hg10 mi
8:52 am58 °FOvercast.8 mph81%29.77 "Hg10 mi
7:52 am56 °FPartly sunny.7 mph90%29.75 "Hg10 mi
7:18 am56 °FCloudy.7 mph87%29.75 "Hg10 mi
6:52 am56 °FMostly cloudy.7 mph87%29.74 "Hg10 mi
5:52 am56 °FOvercast.8 mph87%29.72 "Hg10 mi
5:15 am56 °FOvercast.9 mph90%29.71 "Hg10 mi
4:52 am56 °FOvercast.8 mph90%29.70 "Hg10 mi
4:05 am57 °FMostly cloudy.9 mph87%29.71 "Hg10 mi
3:52 am57 °FMostly cloudy.5 mph87%29.70 "Hg10 mi
2:52 am57 °FMostly cloudy.7 mph90%29.69 "Hg10 mi
2:10 am57 °FOvercast.10 mph90%29.69 "Hg10 mi
1:52 am56 °FMostly cloudy.6 mph93%29.68 "Hg10 mi
12:52 am56 °FMostly cloudy.No wind93%29.66 "Hg10 mi
11:52 pm
Thu, Jan 19
56 °FLight rain. Overcast.5 mph93%29.66 "Hg9 mi
11:17 pm56 °FMostly cloudy.5 mph93%29.68 "Hg10 mi
11:00 pm54 °FFog.3 mph97%29.69 "Hg1 mi
10:37 pm55 °FLight rain. Fog.No wind96%29.68 "Hg1 mi
10:14 pm56 °FLight rain. Fog.No wind93%29.69 "Hg1 mi
10:07 pm55 °FLight rain. Fog.No wind96%29.69 "Hg2 mi
9:52 pm55 °FRain. Fog.No wind96%29.69 "Hg1 mi
9:37 pm55 °FLight rain. Fog.3 mph96%29.70 "Hg1 mi
8:52 pm55 °FLight rain. Fog.No wind93%29.70 "Hg1 mi
8:38 pm55 °FLight rain. Fog.No wind96%29.70 "Hg1 mi
8:01 pm55 °FFog.No wind96%29.71 "Hg2 mi
Weather by CustomWeather, © 2017

See weather overviewHow to use our weather pages